TimeCDT,TemperatureF,Dew PointF,Humidity,Sea Level PressureIn,VisibilityMPH,Wind Direction,Wind SpeedMPH,Gust SpeedMPH,PrecipitationIn,Events,Conditions,WindDirDegrees,DateUTC
12:54 AM,44.1,34.0,68,30.01,10.0,South,8.1,-,N/A,,Clear,190,2012-10-09 05:54:00
1:54 AM,42.1,35.1,76,30.02,10.0,SSW,8.1,-,N/A,,Clear,200,2012-10-09 06:54:00
2:54 AM,43.0,35.1,74,30.00,10.0,SSW,9.2,-,N/A,,Clear,200,2012-10-09 07:54:00
3:54 AM,43.0,35.1,74,29.99,10.0,South,9.2,-,N/A,,Clear,190,2012-10-09 08:54:00
4:54 AM,41.0,36.0,82,30.00,10.0,SSW,6.9,-,N/A,,Clear,200,2012-10-09 09:54:00
5:54 AM,39.9,36.0,86,30.01,10.0,South,6.9,-,N/A,,Clear,190,2012-10-09 10:54:00
6:54 AM,39.9,36.0,86,30.00,10.0,South,6.9,-,N/A,,Clear,190,2012-10-09 11:54:00
7:54 AM,43.0,37.9,82,30.00,10.0,SSW,9.2,-,N/A,,Clear,200,2012-10-09 12:54:00
8:54 AM,46.9,39.0,74,29.99,10.0,SSW,15.0,-,N/A,,Clear,200,2012-10-09 13:54:00
9:54 AM,52.0,41.0,66,29.98,10.0,SSW,16.1,-,N/A,,Clear,210,2012-10-09 14:54:00
10:54 AM,57.9,41.0,53,29.96,10.0,SW,16.1,-,N/A,,Clear,220,2012-10-09 15:54:00
11:54 AM,62.1,41.0,46,29.94,10.0,SW,20.7,27.6,N/A,,Clear,230,2012-10-09 16:54:00
12:54 PM,64.0,39.9,41,29.91,10.0,WSW,17.3,-,N/A,,Clear,240,2012-10-09 17:54:00
1:54 PM,64.9,39.0,39,29.87,10.0,SW,21.9,26.5,N/A,,Clear,220,2012-10-09 18:54:00
2:54 PM,66.0,37.9,36,29.86,10.0,SW,24.2,32.2,N/A,,Clear,220,2012-10-09 19:54:00
3:54 PM,64.9,41.0,42,29.86,10.0,SW,16.1,28.8,N/A,,Clear,220,2012-10-09 20:54:00
4:54 PM,64.0,42.1,45,29.85,10.0,SW,16.1,20.7,N/A,,Clear,220,2012-10-09 21:54:00
5:54 PM,63.0,41.0,45,29.86,10.0,SW,11.5,-,N/A,,Overcast,220,2012-10-09 22:54:00
6:54 PM,62.1,42.1,48,29.86,10.0,SW,8.1,-,N/A,,Overcast,230,2012-10-09 23:54:00
7:54 PM,52.0,39.0,61,29.93,10.0,NW,12.7,26.5,N/A,,Overcast,320,2012-10-10 00:54:00
8:54 PM,46.0,42.1,86,29.98,9.0,NNW,8.1,18.4,0.01,Rain,Light Rain,340,2012-10-10 01:54:00
9:24 PM,44.6,42.8,93,29.97,7.0,Variable,4.6,-,0.08,Rain,Light Rain,0,2012-10-10 02:24:00
9:36 PM,44.6,42.8,93,29.97,7.0,Variable,5.8,-,0.10,Rain,Light Rain,0,2012-10-10 02:36:00
9:54 PM,45.0,43.0,93,29.98,7.0,NW,5.8,-,0.11,Rain,Light Rain,320,2012-10-10 02:54:00
10:54 PM,44.1,42.1,93,30.00,10.0,NW,3.5,-,0.06,Rain,Light Rain,320,2012-10-10 03:54:00
11:54 PM,44.1,42.1,93,30.01,10.0,WSW,4.6,-,0.00,,Overcast,250,2012-10-10 04:54:00